Simultaneous Nadir Overpasses (SNOs) Predictions

Prediction of SNOs between FY3D and NOAA-19 Satellite Orbit:

Table of predicted SNOs for the next 14.0 days since TLE Epoch: 11/7/2020
Index Date (FY3D) Time (FY3D) Lat,Lon (FY3D) SZA (FY3D ) Date (NOAA-19) Time (NOAA-19) Lat,Lon (NOAA-19) SZA (NOAA-19 ) Distance(km) Time Diff (sec)
1 11/12/2020 03:13:06 -78.68, -75.15 82.74 11/12/2020 03:12:03 -78.70, -79.69 82.33 99.07 63
2 11/12/2020 04:03:59 79.00, 90.07 97.73 11/12/2020 04:02:48 79.02, 89.97 97.77 2.80 71
3 11/12/2020 04:54:44 -79.01,-102.69 82.25 11/12/2020 04:53:54 -79.02,-102.79 82.22 2.36 50
4 11/12/2020 05:45:29 79.03, 64.46 97.80 11/12/2020 05:44:48 79.03, 64.60 97.80 3.08 41
5 11/12/2020 06:36:14 -79.04,-128.30 82.18 11/12/2020 06:35:54 -79.03,-128.16 82.20 3.17 20
6 11/12/2020 07:26:58 79.03, 39.09 97.82 11/12/2020 07:26:48 79.05, 39.23 97.82 3.31 10
7 11/12/2020 08:17:43 -79.04,-153.66 82.17 11/12/2020 08:17:54 -79.05,-153.53 82.17 2.85 11
8 11/12/2020 09:08:27 79.03, 13.73 97.83 11/12/2020 09:08:49 79.03, 13.60 97.84 2.80 22
9 11/12/2020 09:59:12 -79.04,-179.03 82.15 11/12/2020 09:59:55 -79.03,-179.16 82.16 3.08 43
10 11/12/2020 10:49:57 79.07, -11.89 97.90 11/12/2020 10:50:49 79.05, -11.78 97.86 3.31 52
11 11/12/2020 11:40:41 -79.04, 155.61 82.13 11/12/2020 11:41:55 -79.05, 155.47 82.14 3.12 74
